Change the Weather History Date:

Thursday, March 20, 2014

  Actual Average Record
Temperature  
Mean Temperature 28 °F -  
Max Temperature 32 °F 38 °F 84 °F (2012)
Min Temperature 24 °F 19 °F -14 °F (1965)
Degree Days  
Heating Degree Days 37    
Moisture  
Dew Point 22 °F    
Average Humidity 76    
Maximum Humidity 88    
Minimum Humidity 48    
Precipitation  
Precipitation 0.02 in - - ()
Sea Level Pressure  
Sea Level Pressure 29.81 in    
Wind  
Wind Speed 16 mph (WNW)    
Max Wind Speed 22 mph    
Max Gust Speed 34 mph    
Visibility 6 miles    
Events Snow    
Averages and records for this station are not official NWS values.
T = Trace of Precipitation, MM = Missing Value Source: NWS Daily Summary

Daily Weather History Graph

Daily Weather History Graph

Search for Another Location

Airport or City:

Trip Planner

Search our weather history database for the weather conditions in past years. The results will help you decide how hot, cold, wet, or windy it might be!

Date:

Astronomy

Mar. 20, 2014 Rise Set
Actual Time 7:42 AM EDT 7:51 PM EDT
Civil Twilight 7:12 AM EDT 8:21 PM EDT
Nautical Twilight 6:37 AM EDT 8:56 PM EDT
Astronomical Twilight 6:02 AM EDT 9:31 PM EDT
Moon No Moon Rise 9:36 AM EDT (3/20)
Length of Visible Light 13h 08m
Length of Day
12h 09m
Waning Gibbous, 84% of the Moon is Illuminated
Mar 20
Waning Gibbous
Mar 23
Last Quarter
Mar 30
New
Apr 7
First Quarter
Apr 15
Full

Hourly Weather History & Observations

Time (EDT) Temp. Windchill Dew Point Humidity Pressure Visibility Wind Dir Wind Speed Gust Speed Precip Events Conditions
12:04 AM 30.0 °F 19.5 °F 27.0 °F 88% 29.67 in 2.5 mi West 13.8 mph - 0.00 in Snow Light Snow
12:47 AM 30.0 °F 18.3 °F 27.0 °F 88% 29.67 in 1.5 mi West 17.3 mph - 0.00 in Snow Light Snow
12:54 AM 30.0 °F 17.9 °F 27.0 °F 88% 29.70 in 1.2 mi West 18.4 mph 24.2 mph 0.00 in Snow Light Snow
1:06 AM 30.0 °F 19.5 °F 27.0 °F 88% 29.68 in 1.2 mi West 13.8 mph 24.2 mph 0.00 in Snow Light Snow
1:11 AM 30.0 °F 19.5 °F 27.0 °F 88% 29.68 in 1.0 mi West 13.8 mph - 0.00 in Snow Light Snow
1:18 AM 30.0 °F 19.5 °F 27.0 °F 88% 29.68 in 1.2 mi WNW 13.8 mph - 0.01 in Snow Light Snow
1:54 AM 30.0 °F 19.5 °F 27.0 °F 88% 29.71 in 1.0 mi West 13.8 mph - 0.01 in Snow Light Snow
2:34 AM 30.0 °F 19.5 °F 27.0 °F 88% 29.69 in 0.8 mi WNW 13.8 mph - 0.01 in Snow Light Snow
2:47 AM 30.0 °F 19.1 °F 27.0 °F 88% 29.69 in 1.0 mi WNW 15.0 mph - 0.01 in Snow Light Snow
2:54 AM 30.0 °F 18.7 °F 27.0 °F 88% 29.73 in 1.0 mi WNW 16.1 mph - 0.01 in Snow Light Snow
3:13 AM 30.0 °F 18.3 °F 27.0 °F 88% 29.70 in 2.5 mi WNW 17.3 mph 24.2 mph 0.00 in Snow Light Snow
3:18 AM 30.0 °F 19.1 °F 27.0 °F 88% 29.70 in 3.0 mi WNW 15.0 mph - 0.00 in Snow Light Snow
3:49 AM 30.2 °F 18.9 °F 26.6 °F 86% 29.71 in 1.8 mi West 16.1 mph - 0.00 in Snow Light Snow
3:50 AM 30.0 °F 19.1 °F 27.0 °F 88% 29.73 in 1.8 mi WNW 15.0 mph 23.0 mph 0.00 in Snow Light Snow
3:58 AM 30.0 °F 17.9 °F 26.1 °F 85% 29.71 in 3.0 mi WNW 18.4 mph 26.5 mph 0.00 in Snow Light Snow
4:07 AM 30.0 °F 19.1 °F 26.1 °F 85% 29.71 in 5.0 mi WNW 15.0 mph 26.5 mph 0.00 in Snow Light Snow
4:25 AM 28.9 °F 17.3 °F 25.0 °F 85% 29.71 in 2.5 mi WNW 16.1 mph 26.5 mph 0.00 in Snow Light Snow
4:34 AM 28.9 °F 15.8 °F 24.1 °F 82% 29.72 in 4.0 mi WNW 20.7 mph 27.6 mph 0.00 in Snow Light Snow
4:54 AM 28.9 °F 17.7 °F 25.0 °F 85% 29.75 in 9.0 mi WNW 15.0 mph 25.3 mph 0.00 in   Overcast
5:54 AM 28.0 °F 14.3 °F 23.0 °F 81% 29.78 in 10.0 mi WNW 21.9 mph 31.1 mph N/A   Overcast
6:04 AM 28.0 °F 15.7 °F 23.0 °F 81% 29.75 in 10.0 mi WNW 17.3 mph 26.5 mph N/A   Overcast
6:54 AM 28.0 °F 16.5 °F 21.0 °F 75% 29.80 in 10.0 mi WNW 15.0 mph 27.6 mph N/A   Overcast
7:54 AM 26.1 °F 12.7 °F 21.0 °F 81% 29.82 in 8.0 mi WNW 18.4 mph - 0.00 in   Overcast
8:01 AM 26.1 °F 13.1 °F 21.0 °F 81% 29.79 in 7.0 mi WNW 17.3 mph 31.1 mph N/A   Overcast
8:19 AM 26.1 °F 13.1 °F 21.0 °F 81% 29.80 in 1.8 mi WNW 17.3 mph 31.1 mph 0.00 in Snow Light Snow
8:29 AM 26.1 °F 12.7 °F 21.0 °F 81% 29.80 in 1.0 mi WNW 18.4 mph 28.8 mph 0.00 in Snow Light Snow
8:54 AM 26.1 °F 13.6 °F 21.0 °F 81% 29.84 in 2.5 mi WNW 16.1 mph - 0.00 in Snow Light Snow
9:00 AM 26.1 °F 14.5 °F 21.0 °F 81% 29.81 in 1.8 mi WNW 13.8 mph 26.5 mph 0.00 in Snow Light Snow
9:19 AM 26.1 °F 12.7 °F 21.0 °F 81% 29.82 in 3.0 mi WNW 18.4 mph 27.6 mph 0.00 in Snow Light Snow
9:54 AM 26.1 °F 13.1 °F 19.0 °F 75% 29.86 in 9.0 mi WNW 17.3 mph 29.9 mph 0.00 in   Overcast
10:54 AM 26.1 °F 12.3 °F 19.0 °F 75% 29.89 in 10.0 mi WNW 19.6 mph - N/A   Overcast
11:43 AM 27.0 °F 13.5 °F 18.0 °F 69% 29.87 in 10.0 mi WNW 19.6 mph 25.3 mph N/A   Scattered Clouds
11:54 AM 27.0 °F 13.9 °F 18.0 °F 69% 29.91 in 10.0 mi WNW 18.4 mph 25.3 mph N/A   Scattered Clouds
12:54 PM 28.9 °F 16.5 °F 17.1 °F 61% 29.91 in 10.0 mi WNW 18.4 mph 25.3 mph N/A   Clear
1:54 PM 30.0 °F 16.9 °F 15.1 °F 54% 29.92 in 10.0 mi NW 21.9 mph 27.6 mph N/A   Clear
2:54 PM 30.0 °F 16.9 °F 15.1 °F 54% 29.92 in 9.0 mi NW 21.9 mph 34.5 mph N/A   Clear
3:54 PM 32.0 °F 20.1 °F 15.1 °F 50% 29.93 in 10.0 mi WNW 19.6 mph 27.6 mph N/A   Clear
4:54 PM 32.0 °F 19.5 °F 14.0 °F 48% 29.94 in 10.0 mi WNW 21.9 mph 27.6 mph N/A   Clear
5:54 PM 32.0 °F 20.5 °F 14.0 °F 48% 29.96 in 10.0 mi WNW 18.4 mph 25.3 mph N/A   Clear
6:54 PM 30.9 °F 21.2 °F 15.1 °F 52% 29.99 in 10.0 mi NW 12.7 mph - N/A   Clear
7:54 PM 28.0 °F 18.1 °F 15.1 °F 58% 30.01 in 10.0 mi NW 11.5 mph - N/A   Partly Cloudy
8:54 PM 24.1 °F 14.4 °F 14.0 °F 65% 30.02 in 10.0 mi NW 9.2 mph - N/A   Clear
9:54 PM 26.1 °F 16.2 °F 14.0 °F 60% 30.04 in 10.0 mi North 10.4 mph - N/A   Clear
10:54 PM 24.1 °F 18.2 °F 14.0 °F 65% 30.05 in 10.0 mi NW 4.6 mph - N/A   Overcast
11:54 PM 25.0 °F 20.7 °F 16.0 °F 69% 30.05 in 10.0 mi NW 3.5 mph - N/A   Overcast